Tracking 31027 objects as of 19-Jul-2025
HD Live streaming from Space Station
objects crossing your sky now

ORBITER SN3

Track ORBITER SN3 now!
10-day predictions


NORAD ID: 56960
Int'l Code: 2023-084AE
Perigee: 481.9 km
Apogee: 496.6 km
Inclination: 97.6 °
Period: 94.2 minutes
Semi major axis: 6860 km
RCS: Unknown
Launch date: June 12, 2023
Source: United States (US)
Launch site: AIR FORCE WESTERN TEST RANGE (AFWTR)
Your satellite tracking list
EKRAN 2 DEB
Track 1 satellite(s)




NASA's NSSDC Master Catalog

Two Line Element Set (TLE):
1 56960U 23084AE  25199.80775864  .00005268  00000-0  19609-3 0  9993
2 56960  97.5842 327.1400 0010727  76.0718 284.1713 15.27884832116479
Source of the keplerian elements: AFSPC